Paulo Viana

Скаут - Flamengo
7 Ноя 2027
Воскресенье
Продолжить

Характер

Адаптивность (1) Амбиции (6) Скандальность (13) Верность (20) Стрессоустойчивость (18) Профессионализм (18) Благородство (11) Темперамент (9)

Профиль

Стиль управления Демократичный
Лицензия Континентальная A
Решительность 10
Управление людьми 7
Мотивация 16
Дисциплина 15
Удовлетворённость
100%
Усталость
0%
Должность Скаут
Зарплата 48.0K в нед.
Контракт 14.03.2029

Производительность

Поведение Хорошее
Эффективность тренировок
48%
Развитие игроков
80%
Профилактика травм
45%
Тактическая реализация
70%

Текущее наблюдение

75
Игрок Клуб Статус Способность Уверенность Наблюдений Последнее наблюдение Последний голос
Haissem Hassan Bloemfontein Celtic Упущен 149 / 125 40% 2 20.07.2027 -
Leo Castledine Middlesbrough Активный 143 / 149 40% 2 20.07.2027 -
Derensili Sanches Fernandes Huddersfield Town Активный 128 / 129 40% 1 20.07.2027 -
Max Johnston Derby County Активный 134 / 120 40% 3 18.07.2027 -
Jimmy Dunne Queens Park Rangers Упущен 139 / 122 40% 1 18.07.2027 -
Bobby Thomas Coventry City Активный 126 / 137 40% 1 18.07.2027 -
Julio Enciso Ipswich Town Активный 154 / 151 40% 4 17.07.2027 -
Léo Scienza Southampton Активный 148 / 129 40% 5 17.07.2027 -
Georginio Rutter Brighton Активный 140 / 140 40% 2 17.07.2027 -
Mohamed Belloumi Hull City Активный 147 / 132 40% 2 17.07.2027 -
Dany Mota Monza Активный 143 / 121 40% 1 17.07.2027 -
Joelinton Newcastle United Активный 165 / 161 40% 2 12.07.2027 -
Luís Henrique Inter Активный 137 / 142 40% 2 12.07.2027 -
Tyrese Campbell Sheffield United Активный 142 / 138 40% 3 11.07.2027 -
Mohamed-Ali Cho Hull City Активный 143 / 131 40% 3 11.07.2027 -
Gonzalo Fulham Активный 153 / 144 40% 4 10.07.2027 -
Samuel Edozie Southampton Активный 134 / 132 40% 5 09.07.2027 -
Exequiel Palacios Ipswich Town Активный 165 / 153 40% 3 08.07.2027 -
Morgan Whittaker Middlesbrough Активный 129 / 145 40% 4 08.07.2027 -
Jarrod Bowen West Ham United Активный 167 / 142 40% 3 07.07.2027 -
Jack Rudoni Coventry City Активный 131 / 137 40% 3 07.07.2027 -
Manor Solomon West Ham United Активный 140 / 129 40% 1 07.07.2027 -
Loum Tchaouna Coventry City Активный 140 / 143 40% 5 06.07.2027 -
Kwadwo Baah Watford Активный 127 / 135 40% 2 06.07.2027 -
Rico Lewis Manchester City Активный 152 / 145 40% 2 05.07.2027 -
Yeremy Pino Crystal Palace Активный 157 / 155 40% 1 05.07.2027 -
Harry Wilson Leeds United Активный 150 / 147 40% 4 04.07.2027 -
Sorba Thomas Stoke City Активный 126 / 131 40% 1 04.07.2027 -
Ethan Williams Peterborough United Активный 116 / 125 40% 1 03.07.2027 -
Saša Lukić Ipswich Town Активный 151 / 145 40% 2 01.07.2027 -
Carlos Vicente Birmingham Активный 138 / 144 40% 1 01.07.2027 -
Ben Nelson Leicester City Активный 143 / 143 40% 1 01.07.2027 -
Sven Botman Newcastle United Активный 166 / 163 40% 1 01.07.2027 -
Alexis Mac Allister Liverpool Активный 156 / 159 40% 3 29.06.2027 -
Koki Saito Queens Park Rangers Активный 119 / 140 40% 2 29.06.2027 -
Tomáš Rigo Stoke City Активный 143 / 130 40% 1 29.06.2027 -
Óscar Mingueza Crystal Palace Активный 156 / 143 40% 1 29.06.2027 -
Shea Charles Southampton Активный 141 / 126 40% 1 29.06.2027 -
Jack Clarke Ipswich Town Активный 144 / 126 40% 2 27.06.2027 -
Finn Azaz Southampton Активный 143 / 123 40% 1 27.06.2027 -
Largie Ramazani Leeds United Активный 138 / 140 40% 3 26.06.2027 -
Reiss Nelson AC Milan Активный 141 / 154 40% 3 25.06.2027 -
Chemsdine Talbi Sunderland Активный 149 / 146 40% 3 25.06.2027 -
James Maddison Tottenham Активный 166 / 145 40% 3 25.06.2027 -
Othmane Maamma Watford Активный 120 / 132 40% 1 24.06.2027 -
Assane Diao Como Активный 144 / 146 40% 2 23.06.2027 -
Kiernan Dewsbury-Hall Everton Активный 155 / 147 40% 2 23.06.2027 -
Mason Greenwood Fenerbahce Активный 151 / 172 40% 1 22.06.2027 -
Wilfried Gnonto Leeds United Активный 135 / 151 40% 1 20.06.2027 -
George Hirst Stoke City Активный 135 / 129 40% 2 18.06.2027 -
Welington Southampton Активный 132 / 117 40% 1 18.06.2027 -
Haji Wright Coventry City Активный 132 / 133 40% 1 18.06.2027 -
Žan Vipotnik Swansea City Активный 139 / 126 40% 1 15.06.2027 -
Taty Castellanos West Ham United Активный 159 / 157 40% 1 15.06.2027 -
Rodrigo Muniz Fulham Активный 151 / 128 40% 1 15.06.2027 -
Matthijs de Ligt Manchester United Активный 172 / 154 40% 1 14.06.2027 -
Adam Wharton Crystal Palace Активный 159 / 159 40% 1 14.06.2027 -
Ronald Swansea City Активный 119 / 131 40% 1 12.06.2027 -
Quilindschy Hartman Burnley Активный 145 / 150 40% 1 11.06.2027 -
Tom Fellows Southampton Активный 136 / 122 40% 1 09.06.2027 -
Bongani Kekana SuperSport United Активный 133 / 150 40% 1 06.06.2027 -
Loïs Openda Juventus Активный 144 / 143 40% 1 05.06.2027 -
Dávid Strelec Middlesbrough Активный 147 / 127 40% 1 05.06.2027 -
Alex Scott Bournemouth Активный 143 / 166 40% 1 03.06.2027 -
Taiwo Awoniyi Coventry City Активный 146 / 134 40% 1 03.06.2027 -
Donyell Malen AS Roma Активный 164 / 143 40% 1 03.06.2027 -
Vitor Roque Palmeiras Активный 137 / 150 72% 1 02.06.2027 За
Tomás Araújo Benfica Активный 155 / 133 40% 1 21.12.2026 -
Jakub Kiwior Porto Активный 160 / 167 40% 1 21.12.2026 -
Didier Muller Chamois Niortais Активный 153 / 142 40% 1 14.12.2026 -
Pepê Porto Активный 139 / 152 40% 1 14.12.2026 -
Marcus Rashford Manchester United Активный 167 / 165 40% 1 03.12.2026 -
Amadou Onana Aston Villa Активный 163 / 151 40% 1 02.12.2026 -
Anton Stach Leeds United Активный 155 / 161 40% 1 02.12.2026 -
Santiago Rodríguez Botafogo Активный 119 / 124 72% 1 01.12.2026 За